STARLINK-34094, 63822

Orbit data source: Space-Track

STARLINK-34094, 63822 is a payload satellite owned by SpaceX/Seattle (US) in LEO that was launched on Sun, 04 May 2025 UTC via an FALCON 9 launch vehicle from the Air Force Eastern Test Range (AFETR). Payload-class satellites include a variety of spacecraft equipped with specific instruments for various scientific and technological missions. These include communications satellites like Starlink; space stations such as the ISS; scientific satellites like the Hubble; Earth observation satellites from companies like Planet Labs, Umbra, and HawkEye 360; GPS; miniature CubeSats for education and research; and military/defense satellites.

Loading next visibility...
Identifier
63822, 2025-092U
Orbit
LEO
Last TLE update
10 hours ago
Origin
Manufacturer
SpaceX/Seattle
Mission
Operational spacecraft
Bus & Motor
STARLINK V2MO, Unknown motor
Mass
575 kg wet, ~530 kg dry
Launch date (UTC)
2025-05-04 (1 week ago)
Launch vehicle
FALCON 9
Launch site
Air Force Eastern Test Range (AFETR)
Object type
Payload
Rocket body
Debris
Shape & HBR
Unknown
Radar Cross Section
Medium (>0.1 m² and <1 m²)

Expand to show TLE details & history

TLE from 10 hours ago
0 STARLINK-34094
1 63822U 25092U   25133.16668981 -.00999573  00000-0 -37373-2 0  9997
2 63822  43.0010  78.5523 0001098 277.3085  50.2996 15.89223717  2593
Epoch: 2025-05-13T04:00Z
Definitive object data (Epoch: 2025-05-13T04:00:01.999Z)
Latitude
-21.58752°
Longitude
122.42015°
Altitude
308.929 km
Speed
7.724 km/s
True Right ascension
03h 34m 23s
True Declination
-21° 27' 44"
Sunlit
Object was in daylight at TLE epoch
Visualization TLE readout
Latitude
-40.19637°
Longitude
80.40629°
Altitude
318.365 km
Speed
7.718 km/s
Apparent Right ascension
05h 28m 32s
Apparent Declination
-73° 12' 59"
Sunlit
Object is in daylight
Visualization observer readout
Local Sidereal Time
22:50:01
Azimuth
157.963° S
Elevation
-40.646°
Doppler factor
1
Orbital elements
Apogee altitude
307.189 km
Perigee altitude
305.721 km
Semi-major axis
6,684.592 km
Eccentricity
0.0001098
Inclination
43.001°
RAAN
78.5523°
Arg. of periapsis
277.3085°
True anomaly
50.30928°
Mean anomaly
50.2996°
Eccentric anomaly
50.30444°
Mean motion
3.97128 °/min
BSTAR
-0.0037373
Orbital period
90.65 mins
Loading maneuver chart data...
Loading SW <> Apogee altitude chart data...
Loading historical data...
Loading historical data...
Loading historical data...
Loading historical data...
Loading historical data...
Loading historical data...
Loading historical data...

STARLINK-34094 Visibility forecast

Observer location: undefined°, undefined°

Span
Click to sort rows by Start time (UTC) header in descending order
Start Az.
Max El. time (UTC)
Max El. Az.
Max El.
End time (UTC)
End Az.
4 mins2025-05-13 23:59:06.759Z226.284° WSW2025-05-14 00:01:06.759Z161.292° S34.842°2025-05-14 00:03:06.759Z85.13° E
4 mins2025-05-14 03:10:06.759Z302.677° NW2025-05-14 03:11:06.759Z334.14° NNW33.128°2025-05-14 03:14:06.759Z85.064° E
4 mins2025-05-14 04:45:06.759Z269.679° W2025-05-14 04:47:06.759Z172.245° S31.601°2025-05-14 04:49:06.759Z131.772° SE
|